Weather Roundup
Issued by NWS

Home | Current Version | Previous Version | Text Only | Print | Product List | Glossary On
Versions: 1 2 3 4 5 6 7 8 9 10 11 12 13 14 15 16 17 18 19 20 21 22 23 24 25 26 27 28 29 30 31 32 33 34 35 36 37 38 39 40 41 42 43 44 45 46 47 48 49 50
000
NZUS93 KARX 290710
HRRWXR

CURRENT HOURLY OBSERVATIONS ACROSS
MUCH OF THE UPPER MISSISSIPPI VALLEY
NATIONAL WEATHER SERVICE LA CROSSE WI
200 AM CDT MON AUG 29 2016


...SOUTHEAST MINNESOTA...


CITY           SKY/WX    TMP DP  RH WIND       PRES   REMARKS
ROCHESTER      CLEAR     68  67  96 S6        30.18F
ROCHESTER/MAYO FAIR      70  70 100 SE6       30.17F
WINONA         PTCLDY    70  68  94 SE3       30.17S
AUSTIN         PTCLDY    70  68  94 CALM      30.15F FOG
ALBERT LEA     CLEAR     72  72 100 S7        30.15F
DODGE CENTER   CLEAR     66  66 100 SE7       30.16F FOG
PRESTON        CLEAR     68  65  90 S5        30.18F
OWATONNA       CLEAR     72  70  94 SE6       30.15S
FARIBAULT      CLEAR     72  70  94 S6        30.14F
$$

...ELSEWHERE IN MINNESOTA...


CITY           SKY/WX    TMP DP  RH WIND       PRES   REMARKS
MINNEAPOLIS    PTCLDY    74  69  85 S10       30.12S
INTNL FALLS    TSTM      62  60  93 VRB7      30.06F
DULUTH         CLOUDY    64  63  96 SE9       30.13F
RED WING       CLEAR     73  70  88 E6        30.13F
REDWOOD FALLS  CLEAR     69  67  93 S9        30.10R
MANKATO        CLEAR     72  66  83 SE5       30.13S
WORTHINGTON    CLEAR     66  63  90 S7        30.15R
FAIRMONT       CLEAR     66  64  93 SW5       30.14F
$$

...SOUTHWEST WISCONSIN...


CITY           SKY/WX    TMP DP  RH WIND       PRES   REMARKS
LA CROSSE      CLEAR     69  68  96 SE5       30.17F
PRAIRIE DU CHI MOCLDY    69  66  92 CALM      30.17F
BOSCOBEL       FOG       68  67  96 CALM      30.19F VSB 1/4
LONE ROCK      CLOUDY    67  65  93 CALM      30.20F
PLATTEVILLE    MOCLDY    69  69 100 E7        30.21S
FORT MC COY    CLEAR     61  61 100 CALM      30.20S
CAMP DOUGLAS   CLEAR     63  63  99 SE3       30.20F
MAUSTON-NEW LI SUNNY     64  64  99 CALM      30.20S FOG
VIROQUA        FAIR      69  69 100 SE5       30.21S
WIS DELLS      FOG       63  61  94 CALM      30.21S VSB<1/4
$$

...ELSEWHERE IN WISCONSIN...


CITY           SKY/WX    TMP DP  RH WIND       PRES   REMARKS
MILWAUKEE      MOCLDY    68  65  90 NE5       30.22F
MADISON        PTCLDY    70  68  93 SE5       30.21S
GREEN BAY      CLOUDY    63  63 100 CALM      30.24R
EAU CLAIRE     PTCLDY    67  65  93 CALM      30.16F
BLACK RVR FLS  FAIR      61  61 100 CALM      30.19S FOG
MEDFORD        CLEAR     60  60 100 SE5       30.21F FOG
WAUSAU         CLEAR     63  62  97 E3        30.22S
WIS RAPIDS     CLOUDY    66  65  96 SE6       30.23S
MARSHFIELD     MOCLDY    65  62  90 SE5       30.21F
RICE LAKE      MOCLDY    67  64  93 SE3       30.18S
$$

...NORTHEAST IOWA...


CITY           SKY/WX    TMP DP  RH WIND       PRES   REMARKS
WATERLOO       PTCLDY    66  64  93 NE6       30.16S
DUBUQUE        CLOUDY    69  67  93 SE7       30.21R
DECORAH        PTCLDY    68  68 100 CALM      30.18S
MASON CITY     CLEAR     68  67  96 S6        30.17F FOG
CHARLES CITY   PTCLDY    68  68 100 CALM      30.17F
OELWEIN        CLEAR     64  64 100 SE6       30.19S
$$

...ELSEWHERE IN IOWA...


CITY           SKY/WX    TMP DP  RH WIND       PRES   REMARKS
DES MOINES     CLOUDY    73  69  87 S5        30.14F THUNDER
IOWA CITY      CLOUDY    70  68  93 SE6       30.19S
FORT DODGE     CLEAR     66  63  88 CALM      30.16S
MARSHALLTOWN   CLOUDY    69  68  96 CALM      30.15F
CEDAR RAPIDS   CLEAR     67  67 100 E6        30.17F
$$

...NORTHERN ILLINOIS...


CITY           SKY/WX    TMP DP  RH WIND       PRES   REMARKS
CHICAGO-OHARE  PTCLDY    72  68  87 E3        30.21F
CHICAGO-MIDWAY PTCLDY    74  68  81 E5        30.20F
MOLINE         CLOUDY    72  68  87 CALM      30.18F
ROCKFORD       CLOUDY    71  68  90 CALM      30.22F
PEORIA         PTCLDY    72  71  97 CALM      30.17F
$$

NOTE: "FAIR" INDICATES FEW OR NO CLOUDS BELOW 12,000 FEET WITH NO
SIGNIFICANT WEATHER AND/OR OBSTRUCTIONS TO VISIBILITY. WIND
SPEEDS ARE IN MILES-PER-HOUR.




USA.gov is the U.S. government's official web portal to all federal, state and local government web resources and services.